When you browse on this site, cookies collect data to enhance your experience and personalize the content and advertising you see.
Visit our Privacy Policy to learn more. By continuing to use the site, you agree to this use of cookies and data.
  • In Schweiz
  • Länderverzeichnis
  • Für 7 Tage
  • Wassertemperatur
  • Satellitenkarten
  • Wetterkarte
  • Widgets
  • user-avatar
    Anmelden

    Stündliche Wetter Plenykiv

    Heute, 26 April, Freitag

    Zeit Temperatur Niederschläge Wind Luftdruck Luftfeuchtigkeit
    00:00 +12°C° 0 mm 3 m/S 732 mmHg 89%
    01:00 +12°C° 0 mm 3 m/S 732 mmHg 90%
    02:00 +11°C° 0 mm 3 m/S 732 mmHg 90%
    03:00 +11°C° 0.3 mm 3 m/S 732 mmHg 91%
    04:00 +11°C° 0.3 mm 3 m/S 732 mmHg 91%
    05:00 +11°C° 0.3 mm 3 m/S 732 mmHg 92%
    06:00 +13°C° 0 mm 3 m/S 732 mmHg 87%
    07:00 +14°C° 0 mm 4 m/S 732 mmHg 82%
    08:00 +17°C° 0 mm 4 m/S 732 mmHg 78%
    09:00 +18°C° 0.1 mm 4 m/S 732 mmHg 72%
    10:00 +20°C° 0.1 mm 5 m/S 732 mmHg 67%
    11:00 +22°C° 0.1 mm 5 m/S 732 mmHg 62%
    12:00 +23°C° 0.2 mm 5 m/S 731 mmHg 58%
    13:00 +25°C° 0.2 mm 5 m/S 731 mmHg 54%
    14:00 +26°C° 0.2 mm 5 m/S 731 mmHg 50%
    15:00 +26°C° 0.1 mm 4 m/S 730 mmHg 52%
    16:00 +25°C° 0.1 mm 4 m/S 730 mmHg 54%
    17:00 +25°C° 0.1 mm 4 m/S 730 mmHg 56%
    18:00 +22°C° 0 mm 4 m/S 729 mmHg 61%
    19:00 +20°C° 0 mm 4 m/S 729 mmHg 66%
    20:00 +18°C° 0 mm 4 m/S 729 mmHg 70%
    21:00 +17°C° 0.5 mm 3 m/S 729 mmHg 74%
    22:00 +16°C° 0.5 mm 3 m/S 729 mmHg 79%
    23:00 +14°C° 0.5 mm 3 m/S 729 mmHg 83%

    Morgen, 27 April, Samstag

    Zeit Temperatur Niederschläge Wind Luftdruck Luftfeuchtigkeit
    00:00 +14°C° 0.2 mm 3 m/S 729 mmHg 83%
    01:00 +14°C° 0.2 mm 3 m/S 729 mmHg 83%
    02:00 +14°C° 0.2 mm 3 m/S 728 mmHg 83%
    03:00 +14°C° 0 mm 3 m/S 728 mmHg 82%
    04:00 +14°C° 0 mm 3 m/S 728 mmHg 81%
    05:00 +14°C° 0 mm 3 m/S 728 mmHg 80%
    06:00 +16°C° 0 mm 3 m/S 728 mmHg 76%
    07:00 +17°C° 0 mm 3 m/S 728 mmHg 73%
    08:00 +19°C° 0 mm 3 m/S 728 mmHg 70%
    09:00 +20°C° 0 mm 3 m/S 728 mmHg 64%
    10:00 +22°C° 0 mm 3 m/S 728 mmHg 57%
    11:00 +25°C° 0 mm 2 m/S 728 mmHg 51%
    12:00 +25°C° 0 mm 2 m/S 728 mmHg 48%
    13:00 +26°C° 0 mm 2 m/S 728 mmHg 46%
    14:00 +26°C° 0 mm 2 m/S 728 mmHg 43%
    15:00 +25°C° 0.3 mm 2 m/S 727 mmHg 50%
    16:00 +24°C° 0.3 mm 3 m/S 727 mmHg 56%
    17:00 +22°C° 0.3 mm 3 m/S 727 mmHg 62%
    18:00 +20°C° 8.6 mm 3 m/S 727 mmHg 72%
    19:00 +18°C° 8.6 mm 3 m/S 727 mmHg 82%
    20:00 +16°C° 8.6 mm 2 m/S 727 mmHg 91%
    21:00 +16°C° 1 mm 2 m/S 727 mmHg 92%
    22:00 +14°C° 1 mm 3 m/S 727 mmHg 93%
    23:00 +14°C° 1 mm 3 m/S 728 mmHg 94%

    übermorgen, 28 April, Sonntag

    Zeit Temperatur Niederschläge Wind Luftdruck Luftfeuchtigkeit
    00:00 +13°C° 0.1 mm 3 m/S 728 mmHg 95%
    01:00 +13°C° 0.1 mm 3 m/S 727 mmHg 95%
    02:00 +13°C° 0.1 mm 4 m/S 727 mmHg 95%
    03:00 +12°C° 0.1 mm 4 m/S 727 mmHg 94%
    04:00 +12°C° 0.1 mm 4 m/S 727 mmHg 93%
    05:00 +10°C° 0.1 mm 5 m/S 727 mmHg 92%
    06:00 +10°C° 0 mm 5 m/S 727 mmHg 91%
    07:00 +10°C° 0 mm 5 m/S 728 mmHg 90%
    08:00 +10°C° 0 mm 5 m/S 728 mmHg 89%
    09:00 +10°C° 0.1 mm 5 m/S 728 mmHg 89%
    10:00 +9°C° 0.1 mm 5 m/S 728 mmHg 89%
    11:00 +9°C° 0.1 mm 5 m/S 728 mmHg 89%
    12:00 +9°C° 0.2 mm 5 m/S 728 mmHg 89%
    13:00 +10°C° 0.2 mm 5 m/S 728 mmHg 88%
    14:00 +10°C° 0.2 mm 5 m/S 728 mmHg 88%
    15:00 +11°C° 0.1 mm 4 m/S 727 mmHg 88%
    16:00 +12°C° 0.1 mm 4 m/S 727 mmHg 88%
    17:00 +12°C° 0.1 mm 4 m/S 727 mmHg 88%
    18:00 +12°C° 0.1 mm 4 m/S 727 mmHg 89%
    19:00 +12°C° 0.1 mm 5 m/S 727 mmHg 90%
    20:00 +12°C° 0.1 mm 5 m/S 727 mmHg 91%
    21:00 +11°C° 0.2 mm 6 m/S 727 mmHg 92%
    22:00 +11°C° 0.2 mm 6 m/S 727 mmHg 92%
    23:00 +11°C° 0.2 mm 6 m/S 727 mmHg 93%

    29 April, Montag

    Zeit Temperatur Niederschläge Wind Luftdruck Luftfeuchtigkeit
    00:00 +11°C° 0.4 mm 6 m/S 726 mmHg 94%
    01:00 +11°C° 0.4 mm 6 m/S 726 mmHg 95%
    02:00 +12°C° 0.4 mm 5 m/S 726 mmHg 95%
    03:00 +12°C° 0.5 mm 5 m/S 726 mmHg 96%
    04:00 +12°C° 0.5 mm 4 m/S 726 mmHg 96%
    05:00 +12°C° 0.5 mm 4 m/S 725 mmHg 96%
    06:00 +12°C° 0 mm 4 m/S 725 mmHg 94%
    07:00 +13°C° 0 mm 3 m/S 725 mmHg 92%
    08:00 +13°C° 0 mm 3 m/S 725 mmHg 90%
    09:00 +14°C° 0.3 mm 3 m/S 726 mmHg 85%
    10:00 +16°C° 0.3 mm 3 m/S 726 mmHg 80%
    11:00 +17°C° 0.3 mm 3 m/S 726 mmHg 75%
    12:00 +17°C° 2.7 mm 3 m/S 726 mmHg 76%
    13:00 +17°C° 2.7 mm 3 m/S 726 mmHg 77%
    14:00 +17°C° 2.7 mm 3 m/S 726 mmHg 77%
    15:00 +16°C° 2.2 mm 3 m/S 725 mmHg 81%
    16:00 +16°C° 2.2 mm 3 m/S 725 mmHg 84%
    17:00 +14°C° 2.2 mm 4 m/S 725 mmHg 87%
    18:00 +13°C° 1.1 mm 4 m/S 726 mmHg 89%
    19:00 +12°C° 1.1 mm 5 m/S 726 mmHg 91%
    20:00 +10°C° 1.1 mm 5 m/S 726 mmHg 92%
    21:00 +10°C° 0.1 mm 5 m/S 726 mmHg 92%
    22:00 +9°C° 0.1 mm 5 m/S 726 mmHg 92%
    23:00 +9°C° 0.1 mm 5 m/S 726 mmHg 92%

    30 April, Dienstag

    Zeit Temperatur Niederschläge Wind Luftdruck Luftfeuchtigkeit
    00:00 +8°C° 0 mm 4 m/S 726 mmHg 93%
    01:00 +8°C° 0 mm 4 m/S 726 mmHg 93%
    02:00 +8°C° 0 mm 4 m/S 726 mmHg 93%
    03:00 +9°C° 0 mm 3 m/S 726 mmHg 93%
    04:00 +9°C° 0 mm 3 m/S 726 mmHg 93%
    05:00 +9°C° 0 mm 3 m/S 726 mmHg 93%
    06:00 +9°C° 0 mm 3 m/S 726 mmHg 92%
    07:00 +9°C° 0 mm 3 m/S 726 mmHg 92%
    08:00 +9°C° 0 mm 3 m/S 726 mmHg 91%
    09:00 +9°C° 0.1 mm 3 m/S 726 mmHg 90%
    10:00 +9°C° 0.1 mm 3 m/S 726 mmHg 89%
    11:00 +8°C° 0.1 mm 4 m/S 726 mmHg 89%
    12:00 +8°C° 0.2 mm 4 m/S 726 mmHg 88%
    13:00 +8°C° 0.2 mm 4 m/S 726 mmHg 88%
    14:00 +8°C° 0.2 mm 4 m/S 726 mmHg 88%
    15:00 +8°C° 0.6 mm 4 m/S 726 mmHg 89%
    16:00 +8°C° 0.6 mm 4 m/S 726 mmHg 91%
    17:00 +7°C° 0.6 mm 4 m/S 726 mmHg 92%
    18:00 +7°C° 1.1 mm 4 m/S 726 mmHg 93%
    19:00 +8°C° 1.1 mm 3 m/S 726 mmHg 94%
    20:00 +7°C° 1.1 mm 3 m/S 726 mmHg 95%
    21:00 +7°C° 0.9 mm 3 m/S 726 mmHg 95%
    22:00 +7°C° 0.9 mm 2 m/S 726 mmHg 95%
    23:00 +7°C° 0.9 mm 2 m/S 726 mmHg 95%

    1 Mai, Mittwoch

    Zeit Temperatur Niederschläge Wind Luftdruck Luftfeuchtigkeit
    00:00 +7°C° 0.1 mm 2 m/S 726 mmHg 95%
    01:00 +6°C° 0.1 mm 2 m/S 726 mmHg 94%
    02:00 +6°C° 0.1 mm 2 m/S 726 mmHg 94%
    03:00 +5°C° 0 mm 2 m/S 726 mmHg 93%
    04:00 +5°C° 0 mm 2 m/S 726 mmHg 92%
    05:00 +4°C° 0 mm 2 m/S 727 mmHg 91%
    06:00 +6°C° 0 mm 2 m/S 727 mmHg 88%
    07:00 +7°C° 0 mm 2 m/S 727 mmHg 84%
    08:00 +8°C° 0 mm 3 m/S 727 mmHg 81%
    09:00 +10°C° 0.1 mm 3 m/S 728 mmHg 74%
    10:00 +11°C° 0.1 mm 3 m/S 728 mmHg 66%
    11:00 +12°C° 0.1 mm 4 m/S 728 mmHg 59%
    12:00 +12°C° 0.1 mm 4 m/S 728 mmHg 57%
    13:00 +13°C° 0.1 mm 4 m/S 728 mmHg 56%
    14:00 +13°C° 0.1 mm 4 m/S 728 mmHg 54%
    15:00 +13°C° 0 mm 4 m/S 728 mmHg 55%
    16:00 +13°C° 0 mm 4 m/S 728 mmHg 55%
    17:00 +12°C° 0 mm 4 m/S 728 mmHg 56%
    18:00 +11°C° 0 mm 3 m/S 728 mmHg 60%
    19:00 +9°C° 0 mm 2 m/S 728 mmHg 65%
    20:00 +7°C° 0 mm 2 m/S 728 mmHg 70%
    21:00 +7°C° 0 mm 2 m/S 728 mmHg 69%
    22:00 +7°C° 0 mm 1 m/S 728 mmHg 69%
    23:00 +7°C° 0 mm 1 m/S 728 mmHg 69%
    Mehr zeigen